THA322 VGHS-VTBS

Flight info

Callsign THA322
Flight time 2h 2m
Altitude 39000
Route ADMIL1D ADMIL G463 BGO L507 IGONI WILLA1C
Aircraft B772/H-SDE2E3FGHIJ5LORVWXY/LB1D1

Departure

Time 2026-04-22 07:53
Airport Hazrat Shahjalal International Airport (VGHS)

Arrival

Time 2026-04-22 09:55
Airport Suvarnabhumi Airport (VTBS)
Time Latitude Longitude Altitude Speed Heading
2026-04-22 07:28 23.84787 90.40385 40 ft 0 kts 54°
2026-04-22 07:37 23.84775 90.40369 40 ft 4 kts 49°
2026-04-22 07:37 23.84756 90.40348 40 ft 4 kts 37°
2026-04-22 07:37 23.84734 90.40333 39 ft 4 kts 12°
2026-04-22 07:38 23.84712 90.40335 40 ft 2 kts 325°
2026-04-22 07:38 23.84711 90.40335 40 ft 0 kts 324°
2026-04-22 07:42 23.84714 90.40333 40 ft 2 kts 324°
2026-04-22 07:43 23.84732 90.40319 40 ft 5 kts 324°
2026-04-22 07:43 23.84764 90.40294 40 ft 7 kts 324°
2026-04-22 07:43 23.84808 90.40259 40 ft 9 kts 323°
2026-04-22 07:43 23.84863 90.40215 40 ft 11 kts 324°
2026-04-22 07:44 23.84932 90.40172 40 ft 12 kts 341°
2026-04-22 07:44 23.85016 90.40135 40 ft 14 kts 323°
2026-04-22 07:44 23.85097 90.40069 40 ft 15 kts 324°
2026-04-22 07:44 23.85169 90.40008 40 ft 12 kts 308°
2026-04-22 07:45 23.85145 90.39929 39 ft 12 kts 234°
2026-04-22 07:45 23.85109 90.39850 40 ft 12 kts 279°
2026-04-22 07:45 23.85170 90.39784 38 ft 13 kts 323°
2026-04-22 07:45 23.85247 90.39720 40 ft 15 kts 324°
2026-04-22 07:46 23.85335 90.39653 40 ft 16 kts 323°
2026-04-22 07:46 23.85426 90.39580 40 ft 17 kts 324°
2026-04-22 07:46 23.85519 90.39507 39 ft 17 kts 324°
2026-04-22 07:46 23.85614 90.39431 40 ft 17 kts 324°
2026-04-22 07:47 23.85709 90.39356 39 ft 17 kts 323°
2026-04-22 07:47 23.85769 90.39288 40 ft 9 kts 271°
2026-04-22 07:47 23.85740 90.39227 40 ft 10 kts 232°
2026-04-22 07:47 23.85696 90.39164 39 ft 11 kts 233°
2026-04-22 07:48 23.85647 90.39092 40 ft 12 kts 234°
2026-04-22 07:48 23.85620 90.39050 40 ft 0 kts 234°
2026-04-22 07:50 23.85619 90.39048 40 ft 1 kts 234°
2026-04-22 07:50 23.85609 90.39033 40 ft 4 kts 234°
2026-04-22 07:50 23.85590 90.39005 39 ft 6 kts 234°
2026-04-22 07:50 23.85562 90.38963 40 ft 8 kts 233°
2026-04-22 07:51 23.85522 90.38908 39 ft 10 kts 224°
2026-04-22 07:51 23.85459 90.38890 38 ft 10 kts 162°
2026-04-22 07:51 23.85418 90.38919 40 ft 1 kts 144°
2026-04-22 07:51 23.85417 90.38920 40 ft 0 kts 144°
2026-04-22 07:52 23.85386 90.38944 40 ft 28 kts 144°
2026-04-22 07:53 23.85002 90.39248 40 ft 106 kts 144°
2026-04-22 07:53 23.84222 90.39875 52 ft 169 kts 146°
2026-04-22 07:53 23.83262 90.40650 734 ft 175 kts 147°
2026-04-22 07:53 23.82257 90.41440 1651 ft 168 kts 146°
2026-04-22 07:54 23.81311 90.42188 2403 ft 175 kts 147°
2026-04-22 07:54 23.80225 90.43043 2643 ft 205 kts 146°
2026-04-22 07:54 23.79000 90.44008 2815 ft 234 kts 146°
2026-04-22 07:54 23.77608 90.45108 3168 ft 257 kts 146°
2026-04-22 07:55 23.76134 90.46283 3808 ft 267 kts 146°
2026-04-22 07:55 23.74612 90.47493 4554 ft 273 kts 147°
2026-04-22 07:55 23.73054 90.48729 5203 ft 282 kts 147°
2026-04-22 07:55 23.71436 90.50006 5813 ft 292 kts 146°
2026-04-22 07:56 23.69773 90.51320 6451 ft 299 kts 147°
2026-04-22 07:56 23.68062 90.52624 7144 ft 298 kts 153°
2026-04-22 07:56 23.66173 90.53590 7740 ft 303 kts 162°
2026-04-22 07:56 23.64176 90.54389 8391 ft 307 kts 164°
2026-04-22 07:57 23.62233 90.55351 8962 ft 314 kts 147°
2026-04-22 07:57 23.60566 90.56951 9444 ft 323 kts 139°
2026-04-22 07:57 23.58935 90.58660 10042 ft 330 kts 139°
2026-04-22 07:57 23.57211 90.60440 10295 ft 352 kts 139°
2026-04-22 07:58 23.55393 90.62291 10891 ft 362 kts 140°
2026-04-22 07:58 23.53525 90.64173 11678 ft 368 kts 140°
2026-04-22 07:58 23.51631 90.66066 12680 ft 370 kts 140°
2026-04-22 07:58 23.49725 90.67961 13711 ft 372 kts 140°
2026-04-22 07:59 23.47798 90.69867 14603 ft 376 kts 140°
2026-04-22 07:59 23.45848 90.71793 15511 ft 380 kts 140°
2026-04-22 07:59 23.43905 90.73710 16444 ft 383 kts 140°
2026-04-22 07:59 23.41920 90.75667 17357 ft 387 kts 140°
2026-04-22 08:00 23.39907 90.77653 18147 ft 394 kts 140°
2026-04-22 08:00 23.37858 90.79672 18867 ft 399 kts 141°
2026-04-22 08:00 23.35784 90.81714 19643 ft 403 kts 142°
2026-04-22 08:00 23.33696 90.83769 20453 ft 407 kts 142°
2026-04-22 08:01 23.31583 90.85848 21247 ft 411 kts 143°
2026-04-22 08:01 23.29457 90.87937 22032 ft 415 kts 143°
2026-04-22 08:01 23.27299 90.90058 22753 ft 421 kts 144°
2026-04-22 08:01 23.25112 90.92209 23466 ft 426 kts 144°
2026-04-22 08:02 23.22896 90.94387 24086 ft 431 kts 144°
2026-04-22 08:02 23.20660 90.96582 24710 ft 435 kts 144°
2026-04-22 08:02 23.18402 90.98797 25314 ft 440 kts 144°
2026-04-22 08:02 23.16094 91.01011 25921 ft 444 kts 146°
2026-04-22 08:03 23.13752 91.03155 26510 ft 448 kts 147°
2026-04-22 08:03 23.11304 91.05355 27123 ft 453 kts 148°
2026-04-22 08:03 23.08870 91.07540 27706 ft 457 kts 147°
2026-04-22 08:03 23.06447 91.09725 28289 ft 461 kts 147°
2026-04-22 08:04 23.03969 91.11971 28830 ft 466 kts 147°
2026-04-22 08:04 23.01472 91.14241 29348 ft 471 kts 147°
2026-04-22 08:04 22.98947 91.16539 29829 ft 476 kts 147°
2026-04-22 08:04 22.96397 91.18860 30249 ft 480 kts 147°
2026-04-22 08:05 22.93829 91.21198 30696 ft 483 kts 147°
2026-04-22 08:05 22.91250 91.23545 31171 ft 485 kts 148°
2026-04-22 08:05 22.88654 91.25905 31601 ft 488 kts 148°
2026-04-22 08:05 22.86040 91.28278 32003 ft 491 kts 148°
2026-04-22 08:06 22.83414 91.30661 32382 ft 495 kts 148°
2026-04-22 08:06 22.80764 91.33063 32760 ft 498 kts 148°
2026-04-22 08:06 22.78093 91.35486 33130 ft 501 kts 148°
2026-04-22 08:06 22.76326 91.37089 33392 ft 501 kts 148°
2026-04-22 08:07 22.72743 91.40342 33963 ft 502 kts 148°
2026-04-22 08:07 22.70971 91.41950 34168 ft 504 kts 148°
2026-04-22 08:07 22.68269 91.44398 34418 ft 507 kts 148°
2026-04-22 08:07 22.65554 91.46857 34663 ft 510 kts 148°
2026-04-22 08:08 22.62834 91.49322 34924 ft 512 kts 148°
2026-04-22 08:08 22.60099 91.51800 35254 ft 512 kts 148°
2026-04-22 08:08 22.57373 91.54267 35642 ft 511 kts 148°
2026-04-22 08:08 22.54642 91.56738 36012 ft 511 kts 148°
2026-04-22 08:09 22.51917 91.59205 36394 ft 510 kts 148°
2026-04-22 08:09 22.49196 91.61670 36761 ft 509 kts 148°
2026-04-22 08:09 22.46478 91.64128 37124 ft 509 kts 148°
2026-04-22 08:09 22.43763 91.66583 37508 ft 507 kts 148°
2026-04-22 08:10 22.41066 91.69024 38028 ft 504 kts 148°
2026-04-22 08:10 22.38385 91.71447 38370 ft 503 kts 148°
2026-04-22 08:10 22.35725 91.73847 38604 ft 504 kts 148°
2026-04-22 08:10 22.33023 91.76283 38736 ft 507 kts 148°
2026-04-22 08:11 22.27597 91.81177 38778 ft 508 kts 148°
2026-04-22 08:11 22.22195 91.86032 38779 ft 502 kts 149°
2026-04-22 08:12 22.16817 91.90816 38797 ft 499 kts 149°
2026-04-22 08:12 22.11437 91.95592 38804 ft 502 kts 149°
2026-04-22 08:13 22.06039 92.00391 38763 ft 503 kts 149°
2026-04-22 08:13 22.00651 92.05183 38776 ft 501 kts 149°
2026-04-22 08:14 21.95267 92.09963 38784 ft 502 kts 149°
2026-04-22 08:14 21.89854 92.14716 38791 ft 502 kts 149°
2026-04-22 08:15 21.84406 92.19432 38791 ft 504 kts 149°
2026-04-22 08:15 21.78935 92.24173 38776 ft 505 kts 149°
2026-04-22 08:16 21.73513 92.28879 38775 ft 503 kts 149°
2026-04-22 08:16 21.68062 92.33605 38784 ft 503 kts 149°
2026-04-22 08:17 21.62774 92.38609 38789 ft 508 kts 145°
2026-04-22 08:17 21.57609 92.43808 38778 ft 509 kts 144°
2026-04-22 08:18 21.52441 92.49016 38788 ft 509 kts 144°
2026-04-22 08:18 21.47267 92.54195 38784 ft 509 kts 145°
2026-04-22 08:19 21.42085 92.59358 38774 ft 507 kts 144°
2026-04-22 08:19 21.36952 92.64458 38779 ft 505 kts 144°
2026-04-22 08:20 21.31813 92.69559 38776 ft 502 kts 144°
2026-04-22 08:20 21.26684 92.74653 38789 ft 504 kts 144°
2026-04-22 08:21 21.21521 92.79772 38787 ft 506 kts 144°
2026-04-22 08:21 21.16335 92.84908 38775 ft 508 kts 144°
2026-04-22 08:22 21.11131 92.90059 38765 ft 508 kts 144°
2026-04-22 08:22 21.05983 92.95153 38781 ft 505 kts 144°
2026-04-22 08:23 21.00835 93.00242 38781 ft 502 kts 144°
2026-04-22 08:23 20.95701 93.05308 38779 ft 501 kts 144°
2026-04-22 08:24 20.90574 93.10361 38771 ft 501 kts 144°
2026-04-22 08:24 20.85443 93.15411 38783 ft 501 kts 144°
2026-04-22 08:25 20.80313 93.20458 38783 ft 502 kts 144°
2026-04-22 08:25 20.75175 93.25511 38783 ft 501 kts 144°
2026-04-22 08:26 20.70043 93.30552 38771 ft 501 kts 144°
2026-04-22 08:26 20.64952 93.35547 38775 ft 500 kts 144°
2026-04-22 08:27 20.59829 93.40569 38788 ft 499 kts 144°
2026-04-22 08:27 20.54710 93.45580 38782 ft 499 kts 144°
2026-04-22 08:28 20.49587 93.50590 38786 ft 499 kts 144°
2026-04-22 08:28 20.44455 93.55607 38786 ft 500 kts 144°
2026-04-22 08:29 20.39332 93.60610 38773 ft 499 kts 143°
2026-04-22 08:29 20.34240 93.65580 38778 ft 499 kts 144°
2026-04-22 08:30 20.29122 93.70568 38777 ft 498 kts 144°
2026-04-22 08:30 20.24008 93.75549 38770 ft 497 kts 143°
2026-04-22 08:31 20.18910 93.80507 38775 ft 496 kts 144°
2026-04-22 08:32 20.11262 93.87935 38756 ft 496 kts 143°
2026-04-22 08:32 20.06163 93.92883 38774 ft 496 kts 143°
2026-04-22 08:33 20.01065 93.97832 38774 ft 496 kts 143°
2026-04-22 08:33 19.95966 94.02772 38773 ft 495 kts 143°
2026-04-22 08:34 19.90916 94.07659 38772 ft 494 kts 143°
2026-04-22 08:34 19.85827 94.12580 38787 ft 494 kts 143°
2026-04-22 08:35 19.80742 94.17492 38786 ft 494 kts 143°
2026-04-22 08:35 19.75645 94.22413 38780 ft 496 kts 143°
2026-04-22 08:36 19.70526 94.27348 38779 ft 495 kts 143°
2026-04-22 08:36 19.65429 94.32262 38781 ft 495 kts 143°
2026-04-22 08:37 19.60366 94.37135 38775 ft 495 kts 143°
2026-04-22 08:37 19.55273 94.42034 38777 ft 494 kts 143°
2026-04-22 08:38 19.50181 94.46927 38771 ft 494 kts 143°
2026-04-22 08:38 19.45082 94.51822 38741 ft 493 kts 143°
2026-04-22 08:39 19.40019 94.56681 38786 ft 491 kts 142°
2026-04-22 08:39 19.34938 94.61554 38767 ft 494 kts 142°
2026-04-22 08:40 19.29826 94.66449 38772 ft 496 kts 142°
2026-04-22 08:40 19.24694 94.71354 38772 ft 498 kts 143°
2026-04-22 08:41 19.19495 94.76194 38748 ft 497 kts 143°
2026-04-22 08:41 19.14281 94.80995 38753 ft 496 kts 143°
2026-04-22 08:42 19.09079 94.85795 38753 ft 495 kts 143°
2026-04-22 08:42 19.03890 94.90594 38735 ft 494 kts 143°
2026-04-22 08:43 18.98761 94.95336 38736 ft 493 kts 143°
2026-04-22 08:43 18.93601 95.00102 38740 ft 493 kts 143°
2026-04-22 08:44 18.88440 95.04864 38724 ft 492 kts 143°
2026-04-22 08:44 18.83277 95.09623 38727 ft 493 kts 143°
2026-04-22 08:45 18.78110 95.14383 38725 ft 493 kts 143°
2026-04-22 08:45 18.72944 95.19137 38721 ft 493 kts 143°
2026-04-22 08:46 18.67770 95.23895 38721 ft 493 kts 143°
2026-04-22 08:46 18.62592 95.28653 38724 ft 493 kts 143°
2026-04-22 08:47 18.57419 95.33402 38720 ft 493 kts 143°
2026-04-22 08:47 18.52239 95.38155 38720 ft 493 kts 143°
2026-04-22 08:48 18.47064 95.42899 38717 ft 493 kts 143°
2026-04-22 08:48 18.41907 95.47680 38718 ft 494 kts 142°
2026-04-22 08:49 18.36819 95.52554 38720 ft 494 kts 142°
2026-04-22 08:49 18.31750 95.57425 38717 ft 493 kts 141°
2026-04-22 08:50 18.26679 95.62273 38716 ft 491 kts 142°
2026-04-22 08:50 18.21648 95.67065 38722 ft 491 kts 142°
2026-04-22 08:51 18.16591 95.71876 38724 ft 490 kts 142°
2026-04-22 08:51 18.11526 95.76690 38723 ft 491 kts 142°
2026-04-22 08:52 18.06463 95.81500 38731 ft 491 kts 142°
2026-04-22 08:52 18.01388 95.86318 38726 ft 492 kts 142°
2026-04-22 08:53 17.96305 95.91140 38719 ft 491 kts 141°
2026-04-22 08:53 17.92091 95.95134 38731 ft 491 kts 141°
2026-04-22 08:54 17.87019 95.99938 38728 ft 491 kts 141°
2026-04-22 08:54 17.81945 96.04740 38730 ft 490 kts 141°
2026-04-22 08:55 17.76878 96.09532 38725 ft 490 kts 141°
2026-04-22 08:55 17.71815 96.14316 38735 ft 490 kts 141°
2026-04-22 08:56 17.66745 96.19103 38732 ft 490 kts 141°
2026-04-22 08:56 17.61670 96.23891 38733 ft 490 kts 141°
2026-04-22 08:57 17.56605 96.28665 38728 ft 490 kts 141°
2026-04-22 08:57 17.51538 96.33439 38734 ft 489 kts 141°
2026-04-22 08:58 17.46505 96.38176 38733 ft 489 kts 141°
2026-04-22 08:58 17.41445 96.42935 38727 ft 489 kts 141°
2026-04-22 08:59 17.36381 96.47696 38731 ft 489 kts 141°
2026-04-22 08:59 17.31416 96.52564 38727 ft 490 kts 136°
2026-04-22 09:00 17.27137 96.58147 38738 ft 491 kts 130°
2026-04-22 09:00 17.23009 96.63837 38735 ft 490 kts 130°
2026-04-22 09:01 17.18869 96.69494 38752 ft 489 kts 130°
2026-04-22 09:01 17.14713 96.75123 38750 ft 489 kts 130°
2026-04-22 09:02 17.10549 96.80741 38751 ft 489 kts 130°
2026-04-22 09:02 17.06383 96.86360 38756 ft 489 kts 130°
2026-04-22 09:03 17.02213 96.91981 38760 ft 489 kts 130°
2026-04-22 09:03 16.98039 96.97604 38759 ft 490 kts 130°
2026-04-22 09:04 16.93861 97.03229 38764 ft 490 kts 130°
2026-04-22 09:04 16.89680 97.08853 38769 ft 490 kts 130°
2026-04-22 09:05 16.85532 97.14428 38759 ft 489 kts 130°
2026-04-22 09:05 16.81363 97.20026 38761 ft 488 kts 130°
2026-04-22 09:06 16.77198 97.25615 38767 ft 487 kts 130°
2026-04-22 09:06 16.73038 97.31193 38765 ft 487 kts 130°
2026-04-22 09:07 16.68874 97.36772 38761 ft 487 kts 130°
2026-04-22 09:07 16.64700 97.42358 38762 ft 487 kts 130°
2026-04-22 09:08 16.60537 97.47927 38778 ft 488 kts 130°
2026-04-22 09:08 16.56357 97.53514 38766 ft 488 kts 130°
2026-04-22 09:09 16.52207 97.59056 38768 ft 487 kts 130°
2026-04-22 09:09 16.48044 97.64612 38767 ft 487 kts 130°
2026-04-22 09:10 16.43876 97.70170 38767 ft 486 kts 130°
2026-04-22 09:10 16.39709 97.75724 38762 ft 486 kts 130°
2026-04-22 09:11 16.35306 97.81037 38755 ft 483 kts 139°
2026-04-22 09:11 16.30240 97.85617 38766 ft 482 kts 142°
2026-04-22 09:12 16.25162 97.90110 38759 ft 482 kts 142°
2026-04-22 09:12 16.20069 97.94660 38759 ft 483 kts 141°
2026-04-22 09:13 16.14988 97.99228 38760 ft 482 kts 141°
2026-04-22 09:13 16.09917 98.03790 38760 ft 482 kts 141°
2026-04-22 09:14 16.04849 98.08345 38759 ft 481 kts 141°
2026-04-22 09:14 15.99786 98.12889 38763 ft 481 kts 141°
2026-04-22 09:15 15.94714 98.17439 38761 ft 481 kts 141°
2026-04-22 09:15 15.89646 98.21981 38765 ft 481 kts 141°
2026-04-22 09:16 15.84580 98.26519 38764 ft 481 kts 141°
2026-04-22 09:16 15.79507 98.31060 38763 ft 481 kts 141°
2026-04-22 09:17 15.74465 98.35571 38768 ft 482 kts 141°
2026-04-22 09:17 15.69375 98.40120 38768 ft 483 kts 141°
2026-04-22 09:18 15.64271 98.44681 38769 ft 484 kts 141°
2026-04-22 09:18 15.59165 98.49240 38773 ft 484 kts 141°
2026-04-22 09:19 15.54055 98.53800 38775 ft 485 kts 141°
2026-04-22 09:19 15.48993 98.58349 38779 ft 485 kts 139°
2026-04-22 09:20 15.44473 98.63535 38787 ft 486 kts 130°
2026-04-22 09:20 15.40258 98.69014 38779 ft 485 kts 130°
2026-04-22 09:21 15.36040 98.74473 38781 ft 485 kts 130°
2026-04-22 09:21 15.31792 98.79915 38787 ft 485 kts 130°
2026-04-22 09:22 15.27565 98.85306 38786 ft 485 kts 130°
2026-04-22 09:22 15.23316 98.90721 38750 ft 481 kts 130°
2026-04-22 09:22 15.21213 98.93401 38375 ft 478 kts 130°
2026-04-22 09:23 15.19121 98.96066 37915 ft 473 kts 130°
2026-04-22 09:23 15.17058 98.98692 37487 ft 469 kts 130°
2026-04-22 09:23 15.15010 99.01300 37061 ft 464 kts 130°
2026-04-22 09:23 15.12983 99.03882 36659 ft 460 kts 130°
2026-04-22 09:24 15.10974 99.06439 36243 ft 456 kts 130°
2026-04-22 09:24 15.08980 99.08975 35840 ft 452 kts 130°
2026-04-22 09:24 15.07001 99.11491 35411 ft 449 kts 130°
2026-04-22 09:24 15.05031 99.13994 34988 ft 447 kts 130°
2026-04-22 09:25 15.03071 99.16483 34545 ft 445 kts 130°
2026-04-22 09:25 15.01119 99.18960 34112 ft 443 kts 130°
2026-04-22 09:25 14.99173 99.21433 33660 ft 442 kts 130°
2026-04-22 09:25 14.97237 99.23892 33177 ft 441 kts 130°
2026-04-22 09:26 14.95327 99.26315 32728 ft 438 kts 130°
2026-04-22 09:26 14.93411 99.28748 32299 ft 435 kts 130°
2026-04-22 09:26 14.91502 99.31170 31857 ft 433 kts 130°
2026-04-22 09:26 14.89601 99.33580 31433 ft 431 kts 130°
2026-04-22 09:27 14.87722 99.35961 31010 ft 429 kts 129°
2026-04-22 09:27 14.85829 99.38359 30589 ft 427 kts 130°
2026-04-22 09:27 14.83951 99.40734 30159 ft 425 kts 130°
2026-04-22 09:27 14.82076 99.43101 29728 ft 424 kts 130°
2026-04-22 09:28 14.80212 99.45454 29233 ft 422 kts 130°
2026-04-22 09:28 14.78356 99.47794 28746 ft 418 kts 129°
2026-04-22 09:28 14.76520 99.50111 28290 ft 415 kts 129°
2026-04-22 09:28 14.74697 99.52411 27850 ft 411 kts 129°
2026-04-22 09:29 14.72893 99.54687 27390 ft 408 kts 129°
2026-04-22 09:29 14.71099 99.56951 26951 ft 405 kts 129°
2026-04-22 09:29 14.69342 99.59165 26538 ft 402 kts 129°
2026-04-22 09:29 14.67571 99.61395 26104 ft 400 kts 129°
2026-04-22 09:30 14.65812 99.63610 25681 ft 397 kts 129°
2026-04-22 09:30 14.64067 99.65810 25254 ft 395 kts 129°
2026-04-22 09:30 14.62334 99.67994 24835 ft 393 kts 129°
2026-04-22 09:30 14.60608 99.70168 24398 ft 390 kts 129°
2026-04-22 09:31 14.58889 99.72331 23977 ft 388 kts 129°
2026-04-22 09:31 14.57175 99.74487 23558 ft 386 kts 128°
2026-04-22 09:31 14.55473 99.76629 23102 ft 385 kts 129°
2026-04-22 09:31 14.53780 99.78760 22649 ft 382 kts 129°
2026-04-22 09:32 14.52103 99.80868 22211 ft 379 kts 129°
2026-04-22 09:32 14.50437 99.82962 21798 ft 375 kts 129°
2026-04-22 09:32 14.48788 99.85035 21376 ft 373 kts 128°
2026-04-22 09:32 14.47147 99.87096 20963 ft 370 kts 129°
2026-04-22 09:33 14.45565 99.89168 20556 ft 367 kts 123°
2026-04-22 09:33 14.44312 99.91450 20157 ft 364 kts 114°
2026-04-22 09:33 14.43396 99.93873 19753 ft 361 kts 105°
2026-04-22 09:33 14.42775 99.96367 19345 ft 358 kts 102°
2026-04-22 09:34 14.42194 99.98864 18935 ft 357 kts 103°
2026-04-22 09:34 14.41608 100.01323 18526 ft 356 kts 103°
2026-04-22 09:34 14.41006 100.03800 18114 ft 356 kts 103°
2026-04-22 09:35 14.39795 100.08705 17392 ft 346 kts 104°
2026-04-22 09:35 14.39199 100.11086 17128 ft 340 kts 103°
2026-04-22 09:35 14.38612 100.13432 16894 ft 336 kts 103°
2026-04-22 09:35 14.38032 100.15751 16648 ft 332 kts 104°
2026-04-22 09:36 14.37458 100.18047 16400 ft 330 kts 103°
2026-04-22 09:36 14.36885 100.20334 16166 ft 328 kts 103°
2026-04-22 09:36 14.36315 100.22609 15928 ft 327 kts 103°
2026-04-22 09:36 14.35749 100.24876 15687 ft 326 kts 104°
2026-04-22 09:37 14.35184 100.27141 15447 ft 325 kts 104°
2026-04-22 09:37 14.34627 100.29367 15230 ft 324 kts 104°
2026-04-22 09:37 14.34056 100.31644 14982 ft 324 kts 103°
2026-04-22 09:37 14.33500 100.33861 14745 ft 323 kts 104°
2026-04-22 09:38 14.32937 100.36101 14509 ft 322 kts 104°
2026-04-22 09:38 14.32376 100.38337 14278 ft 322 kts 104°
2026-04-22 09:38 14.31817 100.40566 14042 ft 321 kts 104°
2026-04-22 09:38 14.31260 100.42788 13810 ft 320 kts 104°
2026-04-22 09:39 14.30702 100.45009 13587 ft 319 kts 104°
2026-04-22 09:39 14.30146 100.47225 13326 ft 318 kts 104°
2026-04-22 09:39 14.29593 100.49422 13083 ft 316 kts 104°
2026-04-22 09:39 14.29227 100.50875 12934 ft 315 kts 104°
2026-04-22 09:40 14.28678 100.53057 12688 ft 314 kts 104°
2026-04-22 09:40 14.28130 100.55237 12455 ft 313 kts 104°
2026-04-22 09:40 14.27586 100.57399 12237 ft 311 kts 104°
2026-04-22 09:40 14.26859 100.60283 11933 ft 310 kts 104°
2026-04-22 09:41 14.26499 100.61711 11785 ft 310 kts 104°
2026-04-22 09:41 14.25723 100.63731 11666 ft 302 kts 125°
2026-04-22 09:41 14.24195 100.65235 11581 ft 310 kts 150°
2026-04-22 09:41 14.22169 100.65962 11383 ft 310 kts 173°
2026-04-22 09:42 14.20041 100.65848 11175 ft 304 kts 193°
2026-04-22 09:42 14.17987 100.65304 10949 ft 305 kts 196°
2026-04-22 09:42 14.15923 100.64736 10725 ft 307 kts 195°
2026-04-22 09:42 14.13855 100.64170 10502 ft 307 kts 195°
2026-04-22 09:43 14.11823 100.63620 10275 ft 303 kts 195°
2026-04-22 09:43 14.09801 100.63079 10044 ft 297 kts 195°
2026-04-22 09:43 14.07812 100.62553 9836 ft 291 kts 195°
2026-04-22 09:43 14.05865 100.62041 9642 ft 287 kts 195°
2026-04-22 09:44 14.03941 100.61536 9420 ft 282 kts 195°
2026-04-22 09:44 14.02048 100.61224 9174 ft 271 kts 176°
2026-04-22 09:44 14.00312 100.61788 9002 ft 265 kts 148°
2026-04-22 09:44 13.98974 100.63074 8756 ft 263 kts 126°
2026-04-22 09:45 13.98170 100.64731 8518 ft 258 kts 105°
2026-04-22 09:45 13.97721 100.66512 8290 ft 257 kts 104°
2026-04-22 09:45 13.97268 100.68291 8057 ft 256 kts 103°
2026-04-22 09:45 13.97152 100.70081 7800 ft 251 kts 76°
2026-04-22 09:46 13.97920 100.71642 7598 ft 250 kts 46°
2026-04-22 09:46 13.99327 100.72700 7379 ft 255 kts 22°
2026-04-22 09:46 14.01025 100.73266 7155 ft 258 kts 14°
2026-04-22 09:46 14.02675 100.73903 6752 ft 255 kts 37°
2026-04-22 09:47 14.03692 100.75362 6427 ft 254 kts 75°
2026-04-22 09:47 14.03719 100.77153 6156 ft 250 kts 103°
2026-04-22 09:47 14.03276 100.78878 5861 ft 249 kts 107°
2026-04-22 09:47 14.02792 100.80584 5608 ft 247 kts 107°
2026-04-22 09:48 14.02253 100.82240 5289 ft 240 kts 120°
2026-04-22 09:48 14.01136 100.83478 4900 ft 238 kts 152°
2026-04-22 09:48 13.99568 100.83892 4630 ft 234 kts 183°
2026-04-22 09:48 13.97982 100.83652 4379 ft 229 kts 191°
2026-04-22 09:49 13.96414 100.83295 4095 ft 231 kts 193°
2026-04-22 09:49 13.94852 100.82894 3895 ft 231 kts 193°
2026-04-22 09:49 13.93299 100.82483 3683 ft 229 kts 193°
2026-04-22 09:49 13.91765 100.82077 3487 ft 226 kts 193°
2026-04-22 09:50 13.90259 100.81679 3302 ft 222 kts 194°
2026-04-22 09:50 13.88777 100.81284 3130 ft 218 kts 193°
2026-04-22 09:50 13.87318 100.80897 2954 ft 214 kts 194°
2026-04-22 09:50 13.85889 100.80518 2767 ft 210 kts 193°
2026-04-22 09:51 13.84525 100.80159 2675 ft 195 kts 193°
2026-04-22 09:51 13.83255 100.79823 2440 ft 184 kts 193°
2026-04-22 09:51 13.82044 100.79504 2242 ft 175 kts 193°
2026-04-22 09:51 13.80917 100.79206 2109 ft 158 kts 194°
2026-04-22 09:52 13.79856 100.78924 1980 ft 157 kts 193°
2026-04-22 09:52 13.78804 100.78647 1834 ft 155 kts 193°
2026-04-22 09:52 13.77771 100.78375 1654 ft 151 kts 194°
2026-04-22 09:52 13.76788 100.78115 1471 ft 140 kts 195°
2026-04-22 09:53 13.75890 100.77875 1300 ft 126 kts 192°
2026-04-22 09:53 13.75056 100.77656 1161 ft 124 kts 192°
2026-04-22 09:53 13.74166 100.77421 986 ft 138 kts 193°
2026-04-22 09:53 13.73267 100.77186 840 ft 129 kts 197°
2026-04-22 09:54 13.72407 100.76956 669 ft 129 kts 197°
2026-04-22 09:54 13.71568 100.76737 524 ft 120 kts 195°
2026-04-22 09:54 13.70738 100.76516 370 ft 128 kts 194°
2026-04-22 09:54 13.69873 100.76289 201 ft 127 kts 194°
2026-04-22 09:55 13.69046 100.76068 34 ft 115 kts 195°
2026-04-22 09:55 13.68380 100.75896 18 ft 79 kts 194°
2026-04-22 09:55 13.67995 100.75795 16 ft 35 kts 194°
2026-04-22 09:55 13.67789 100.75741 15 ft 30 kts 194°
2026-04-22 09:56 13.67594 100.75667 15 ft 30 kts 212°
2026-04-22 09:56 13.67472 100.75562 18 ft 15 kts 225°
2026-04-22 09:56 13.67464 100.75479 17 ft 3 kts 326°
2026-04-22 09:56 13.67487 100.75474 17 ft 4 kts 359°
2026-04-22 09:57 13.67522 100.75479 17 ft 6 kts 11°
2026-04-22 09:57 13.67567 100.75492 17 ft 8 kts 14°
2026-04-22 09:57 13.67623 100.75506 17 ft 9 kts 14°
2026-04-22 09:57 13.67690 100.75523 19 ft 11 kts 14°
2026-04-22 09:58 13.67765 100.75545 17 ft 12 kts 15°
2026-04-22 09:58 13.67848 100.75567 17 ft 13 kts 14°
2026-04-22 09:58 13.67942 100.75591 17 ft 14 kts 14°
2026-04-22 09:58 13.68042 100.75617 17 ft 16 kts 14°
2026-04-22 09:59 13.68110 100.75590 17 ft 12 kts 289°
2026-04-22 09:59 13.68164 100.75549 17 ft 11 kts
2026-04-22 09:59 13.68239 100.75535 17 ft 12 kts 308°
2026-04-22 09:59 13.68266 100.75453 17 ft 13 kts 284°
2026-04-22 10:00 13.68288 100.75366 17 ft 13 kts 284°
2026-04-22 10:00 13.68309 100.75279 17 ft 13 kts 284°
2026-04-22 10:00 13.68332 100.75190 18 ft 13 kts 284°
2026-04-22 10:00 13.68355 100.75099 18 ft 13 kts 284°
2026-04-22 10:01 13.68379 100.75006 18 ft 14 kts 284°
2026-04-22 10:01 13.68402 100.74909 19 ft 14 kts 284°
2026-04-22 10:01 13.68427 100.74812 18 ft 14 kts 284°
2026-04-22 10:01 13.68452 100.74714 18 ft 14 kts 284°
2026-04-22 10:02 13.68450 100.74666 18 ft 4 kts 209°
2026-04-22 10:02 13.68416 100.74656 18 ft 6 kts 195°
2026-04-22 10:02 13.68377 100.74646 18 ft 3 kts 194°
2026-04-22 10:02 13.68374 100.74645 18 ft 0 kts 194°